Current weather by "City, St" or "zip code"  
 

Current Conditions: Coeur dAlene Airport - Pappy Boyington Field, ID

Fair


59.0 F

Last Updated on Oct 29 2020, 2:56 pm PDT
Humidity: 51%
Wind Speed: 4.6 mph
Barometer 30.08 in
Dewpoint: 41.0 F
Visibility: 10.00 mi
Precip: --
Heat Index: NA
Wind Chill: 59 F
Current conditions at:

Coeur dAlene Airport - Pappy Boyington Field, ID (KCOE)

Lat: 47.76667 Lon: 116.81667

Local Radar Image active severe weather and emergency alerts image image weather storm and storm spotter reports image weather observation monitoring service image
Local
Radar
Active
Alerts
Storm Reports Obs
Monitoring

Sign-up For Email & Text Message Weather Alert Notification Services



Advertise Here

Observation History for Coeur dAlene Airport - Pappy Boyington Field, ID


Time Wind
(mph)
Vis
(mi)
Weather Precip (in) Temperature (F) Relative
Humidity
Wind
Chill
(F)
Heat
Index
(F)
Pressure
Air Dwpt altimeter
(in)
sea level
(mb)
Rmks
2:56 pm PDT 4.6 10.00 Fair -- 59.0 41.0 51% 59 NA 30.08 1021.1
1:56 pm PDT S 8.1 10.00 Fair -- 58.0 39.9 51% 56 NA 30.10 1021.8
12:56 pm PDT S 9.2 10.00 Fair -- 57.0 41.0 55% 55 NA 30.11 1022.2
11:56 am PDT S 10.4 10.00 Fair -- 54.0 39.9 59% 51 NA 30.12 1022.8
10:56 am PDT S 10.4 10.00 Fair -- 51.0 39.9 66% 47 NA 30.13 1023.2
9:56 am PDT S 8.1 10.00 Fair -- 47.0 39.0 74% 43 NA 30.13 1023.4
8:56 am PDT S 8.1 10.00 Fair -- 42.0 37.0 82% 37 NA 30.12 1023.3
7:56 am PDT S 6.9 10.00 Fair -- 40.0 37.0 89% 35 NA 30.12 1023.2
6:56 am PDT S 8.1 10.00 Fair -- 39.0 37.0 93% 33 NA 30.11 1022.6
5:56 am PDT S 8.1 10.00 Fair -- 40.0 37.0 89% 35 NA 30.10 1022.1
4:56 am PDT SE 8.1 10.00 Fair -- 41.0 37.0 86% 36 NA 30.09 1021.7
3:56 am PDT SE 8.1 10.00 Fair -- 40.0 37.0 89% 35 NA 30.10 1021.7
2:56 am PDT E 3.5 10.00 Fair -- 32.0 30.9 96% NA NA 30.10 1022.1
1:56 am PDT N 0.0 10.00 Fair -- 31.0 30.0 96% NA NA 30.10 1022.4
12:56 am PDT NE 3.5 10.00 Fair -- 33.0 30.9 92% NA NA 30.12 1022.9
10:56 pm PDT N 0.0 10.00 Fair -- 32.0 30.0 92% NA NA 30.13 1023.6
9:56 pm PDT NE 3.5 10.00 Fair Trace 33.0 30.0 89% NA NA 30.13 1023.6
8:56 pm PDT E 4.6 1.75 Fog/Mist Trace 36.0 33.1 89% 32 NA 30.13 1023.7
7:56 pm PDT N 0.0 3.00 Light Rain Fog/Mist Trace 36.0 33.1 89% NA NA 30.14 1024.3
6:56 pm PDT N 0.0 10.00 Fair -- 41.0 35.1 79% NA NA 30.14 1024.3
5:56 pm PDT S 3.5 10.00 Fair -- 45.0 37.0 74% NA NA 30.14 1024.2
4:56 pm PDT SW 5.8 10.00 Fair -- 47.0 37.9 71% 44 NA 30.15 1024.6
3:56 pm PDT W 4.6 10.00 Fair -- 52.0 37.9 59% 51 NA 30.16 1024.3

Regional Weather Observation


Coeur dAlene Airport - Pappy Boyington Field, ID (KCOE)

Fair
59.0 F

Spokane, Felts Field, WA (KSFF)

Fair
61.0 F

Spokane, Spokane International Airport, WA (KGEG)

A Few Clouds
58.0 F

Sandpoint, Sandpoint Airport, ID (KSZT)

Fair
59.0 F

Fairchild Air Force Base, WA (KSKA)

Fair
59.0 F

Boundary County Airport, ID (K65S)

Fair
57.0 F